Showing default

COSMOS 2532, 43753

Orbit data source: Space-Track

COSMOS 2532, 43753 is a payload satellite owned by VVKO VKS (CIS) in LEO that was launched on Fri, 30 Nov 2018 UTC via an ROKOT launch vehicle from the Plesetsk Missile And Space Complex (PKMTR). Payloads include a variety of satellites, spacecraft, and rockets equipped with specific instruments for various scientific and technological missions. These include communications satellites like Starlink; space stations such as the ISS; scientific satellites like the Hubble; Earth observation satellites from companies like Planet Labs, Umbra, and HawkEye 360; GPS; miniature CubeSats for education and research; and military/defense satellites.

Loading next visibility...
COSMOS 2532 details
Identifier
43753, 2018-097C
Orbit
LEO
Last TLE update8 hours ago
Origin
Flag of CISVVKO VKS (CIS)
ManufacturerResehetnev ISS
MissionOperational Defense Communications
Bus & MotorSTRELA-3M, Unknown motor
Mass280 kg wet, 280 kg dry
Launch date (UTC)
2018-11-30 (6 years ago)
Launch vehicle
ROKOT
Launch site
Plesetsk Missile And Space Complex (PKMTR)
Object type
Payload
Rocket body
Debris
Shape & HBRCyl + 1 Ant, 7 m
Radar Cross Section1.583 m², Large (>1 m²)

Expand to show TLE details & history

TLE from 8 hours ago
0 COSMOS 2532
1 43753U 18097C   24361.13953393  .00000053  00000-0  31198-3 0  9992
2 43753  82.5124 196.1307 0018315 148.0521 212.1673 12.42902427275540
Epoch: 2024-12-26T03:20Z
Definitive object data (Epoch: 2024-12-26T03:20:55.731Z)
Latitude-0.00004°
Longitude50.77527°
Altitude1,509.238 km
Speed7.105 km/s
True Right ascension13h 04m 31s
True Declination0° 00' 00"
Sunlit
Object was in daylight at TLE epoch
Visualization TLE readout
Latitude69.84807°
Longitude71.44469°
Altitude1,502.902 km
Speed7.121 km/s
Apparent Right ascension20h 33m 54s
Apparent Declination39° 36' 30"
Sunlit
Object is in daylight
Visualization observer readout
Local Sidereal Time10:48:50
Azimuth25.423° NE
Elevation-4.722°
Doppler factor1
Orbital elements
Apogee altitude1,506.088 km
Perigee altitude1,477.261 km
Semi-major axis7,869.811 km
Eccentricity0.0018315
Inclination82.5124°
RAAN196.1307°
Arg. of periapsis148.0521°
True anomaly212.05578°
Mean anomaly212.1673°
Eccentric anomaly212.11152°
Mean motion3.10883 °/min
BSTAR0.00031198
Orbital period115.8 mins
Loading maneuver chart data...
Loading historical data...
Loading historical data...
Loading historical data...
Loading historical data...
Loading historical data...
Loading historical data...
Loading historical data...
Other satellites on launch #97 in the year 2018 (2018-11-30 UTC)

COSMOS 2532 Visibility forecast

Observer location: undefined°, undefined

Span
Click to sort rows by Start time (UTC) header in descending order
Start Az.
Max El. time (UTC)
Max El. Az.
Max El.
End time (UTC)
End Az.
15 mins2024-12-26 13:05:29.644Z155.132° SSE2024-12-26 13:13:29.644Z85.454° E34.959°2024-12-26 13:20:29.644Z22.574° NE
14 mins2024-12-26 15:03:29.644Z224.672° SW2024-12-26 15:10:29.644Z291.438° WNW32.453°2024-12-26 15:17:29.644Z351.691° N
10 mins2024-12-26 23:18:29.644Z27.739° NE2024-12-26 23:23:29.644Z68.149° E19.226°2024-12-26 23:28:29.644Z106.044° ESE
16 mins2024-12-27 01:13:29.644Z350.214° N2024-12-27 01:20:29.644Z308.999° NW44.52°2024-12-27 01:29:29.644Z178.938° S
6 mins2024-12-27 03:13:29.644Z304.82° NW2024-12-27 03:16:29.644Z282.514° WNW14.211°2024-12-27 03:19:29.644Z260.585° W
|